Regional Weather Roundup
Issued by NWS Little Rock, AR

Home | Current Version | Previous Version | Text Only | Print | Product List | Glossary On
Versions: 1 2 3 4 5 6 7 8 9 10 11 12 13 14 15 16 17 18 19 20 21 22 23 24 25 26 27 28 29 30 31 32 33 34 35 36 37 38 39 40 41 42 43 44 45 46 47 48 49 50
000
ASUS44 KLZK 050405
RWRLZK

WEATHER ROUNDUP FOR ARKANSAS
NATIONAL WEATHER SERVICE LITTLE ROCK AR
1000 PM CST SUN DEC 04 2016

NOTE: "FAIR" INDICATES FEW OR NO CLOUDS BELOW 12,000 FEET WITH NO
SIGNIFICANT WEATHER AND/OR OBSTRUCTIONS TO VISIBILITY.

ARZ001-003-010-029-050500-
NORTHWEST ARKANSAS

CITY           SKY/WX    TMP DP  RH WIND       PRES   REMARKS
FAYETTEVILLE   FOG       31  31 100 CALM      30.05R VSB 1/2
FORT SMITH     MOCLDY    41  39  93 CALM      30.05S
HARRISON       CLEAR     34  33  96 CALM      30.04R FOG
BENTONVILLE    PTCLDY    34  28  80 CALM      30.04R
ROGERS         PTCLDY    36  35  96 S3        30.05R
SILOAM SPGS    MOCLDY    34  32  93 CALM      30.04R VSB 1/2
HIGHFILL       CLOUDY    32  31  96 S3        30.03R
$$

ARZ004-005-016-050500-
NORTH CENTRAL ARKANSAS

CITY           SKY/WX    TMP DP  RH WIND       PRES   REMARKS
BATESVILLE     CLOUDY    41  37  87 CALM      30.07S
FLIPPIN        CLOUDY    37  32  81 CALM      30.02R
MTN HOME       PTCLDY    38  37  97 CALM      30.04R
$$

ARZ040-041-050500-
WEST CENTRAL ARKANSAS

CITY           SKY/WX    TMP DP  RH WIND       PRES   REMARKS
MENA           CLOUDY    37  36  93 CALM      30.05R
MOUNT IDA      MOCLDY    40  39  97 CALM      30.02R FOG
$$

ARZ009-017-025-026-028-050500-
NORTHEAST ARKANSAS

CITY           SKY/WX    TMP DP  RH WIND       PRES   REMARKS
CORNING        CLOUDY    41  41 100 CALM      30.07R
JONESBORO      CLOUDY    43  41  93 CALM      30.06R
NEWPORT        PTCLDY    42  41  96 MISG      30.06S
WALNUT RIDGE   CLOUDY    41  36  81 CALM      30.05F
BLYTHEVILLE    CLOUDY    45  40  82 N8        30.08R
$$

ARZ022-023-033-042-044-050500-
CENTRAL ARKANSAS

CITY           SKY/WX    TMP DP  RH WIND       PRES   REMARKS
LITTLE ROCK    CLOUDY    43  43 100 CALM      30.07R
N LITTLE ROCK    N/A     42  41  95 CALM      30.09R
JACKSONVILLE   CLOUDY    42  42  99 CALM      30.06R
SEARCY         CLOUDY    41  41 100 CALM      30.08S
HOT SPRINGS    PTCLDY    43  41  93 CALM      30.06R
RUSSELLVILLE   PTCLDY    39  38  96 CALM      30.05R FOG
CLINTON        FAIR      39  37  93 CALM      30.06R FOG
$$

ARZ036-050500-
EAST ARKANSAS

CITY           SKY/WX    TMP DP  RH WIND       PRES   REMARKS
WEST MEMPHIS   CLOUDY    45  41  86 N5        30.06S
$$

ARZ050-053-066-070-073-050500-
SOUTHWEST ARKANSAS

CITY           SKY/WX    TMP DP  RH WIND       PRES   REMARKS
ARKADELPHIA    CLOUDY    46  45  96 CALM      30.06S
CAMDEN         CLOUDY    46  43  87 CALM      30.07R
TEXARKANA      CLOUDY    48  42  80 NE6       30.07R
EL DORADO      CLOUDY    47  44  90 NE6       30.06R
DE QUEEN       CLOUDY    43  43 100 CALM      30.04S
$$

ARZ056-057-069-050500-
SOUTHEAST ARKANSAS

CITY           SKY/WX    TMP DP  RH WIND       PRES   REMARKS
PINE BLUFF     CLOUDY    46  43  89 NE5       30.07R
STUTTGART      CLOUDY    46  39  76 NE6       30.07F
MONTICELLO     CLOUDY    45  43  93 CALM      30.06S

$$





USA.gov is the U.S. government's official web portal to all federal, state and local government web resources and services.